Regional Weather Roundup
Issued by NWS Sterling, VA

Home | Current Version | Previous Version | Graphics & Text | Print | Product List | Glossary On
Versions: 1 2 3 4 5 6 7 8 9 10 11 12 13 14 15 16 17 18 19 20 21 22 23 24 25 26 27 28 29 30 31 32 33 34 35 36 37 38 39 40 41 42 43 44 45 46 47 48 49 50
000
ASUS41 KLWX 240210
RWRLWX

REGIONAL WEATHER ROUNDUP
NATIONAL WEATHER SERVICE BALTIMORE MD/WASHINGTON DC
1000 PM EDT MON MAY 23 2016

Note: "FAIR" indicates few or no clouds below 12,000 feet
with no significant weather and/or obstructions to visibility.
 TC=TEMPERATURE CELSIUS

 * =Non NWS site. Station does not report precipitation (e.g. rain,
    snow, etc.), thunder, or fog.

DCZ001-MDZ009-015-VAZ040>042-051-053>054-240300-
WASHINGTON METRO

CITY           SKY/WX    TMP DP  RH WIND       PRES   REMARKS
WASHINGTON NAT CLOUDY    61  58  90 N7        29.98R
DULLES         MOCLDY    60  57  89 W6        29.98R
ANDREWS AFB    MOCLDY    58  57  96 W6        29.96R
FT BELVOIR     MOCLDY    59  57  94 W5        29.97R
QUANTICO       CLOUDY    60  57  89 W3        29.98R
COLLEGE PARK*  FAIR      57  55  94 CALM      29.96S
LEESBURG*      CLOUDY    63  61  94 W5        29.99R
MANASSAS*      PTCLDY    57  57 100 CALM      29.98R

$$

MDZ006>007-011-014-240300-
BALTIMORE METRO

CITY           SKY/WX    TMP DP  RH WIND       PRES   REMARKS
BWI AIRPORT    CLOUDY    58  56  93 W6        29.94S
MD SCIENCE CTR   N/A     60  56  86 MISG      29.95S
MARTIN STATE   CLOUDY    59  59 100 W8        29.94
ANNAPOLIS      CLOUDY    59  56  89 W6        29.93F
FORT MEADE*    CLOUDY    55  54  94 CALM      29.98F

$$

MDZ012-015-019>023-240300-
MARYLAND EASTERN SHORE

CITY           SKY/WX    TMP DP  RH WIND       PRES   REMARKS
OCEAN CITY     CLOUDY    57  52  83 CALM      29.94R
SALISBURY      CLOUDY    58  53  84 CALM      29.94R
BAY BRIDGE AP* CLOUDY    61  57  88 W9        29.91F
CAMBRIDGE*       N/A     57  55  94 CALM      29.93F
EASTON*        CLOUDY    61  61 100 CALM      29.96F

$$

MDZ017>025-240300-
SOUTHERN MARYLAND

CITY           SKY/WX    TMP DP  RH WIND       PRES   REMARKS
PATUXENT RIVER MOCLDY    58  55  90 W6        29.94S
ST INIGOES     CLOUDY    60  56  86 W5        29.94R
LEONARDTOWN*   CLOUDY    55  54  94 W3        29.96S

$$

MDZ003>005-240300-
NORTH CENTRAL MARYLAND

CITY           SKY/WX    TMP DP  RH WIND       PRES   REMARKS
FREDERICK*     CLOUDY    59  55  88 SW6       29.99S
HAGERSTOWN APT CLOUDY    61  54  77 S7        29.95S
WESTMINSTER*   CLOUDY    59  43  55 SW7       29.96R

$$

MDZ501>502-240300-
WESTERN MARYLAND

CITY           SKY/WX    TMP DP  RH WIND       PRES   REMARKS
OAKLAND*       NOT AVBL
CUMBERLAND*    PTCLDY    63  54  72 SW6       30.05R

$$

VAZ025>031-240300-
SHENANDOAH VALLEY

CITY           SKY/WX    TMP DP  RH WIND       PRES   REMARKS
WINCHESTER*    LGT RAIN  61  54  77 W5        30.02R
FRONT ROYAL*   CLOUDY    59  54  82 N3        30.00R
LURAY*         CLOUDY    61  54  77 CALM      30.00R
NEW MARKET*    MOCLDY    56  53  88 CALM      30.00R
STAUNTON*      FAIR      60  56  87 CALM      30.04R
WAYNESBORO*    FAIR      57  52  84 CALM      30.03R

$$

WVZ021-048>050-054>055-240300-
EASTERN WEST VIRGINIA PANHANDLE

CITY           SKY/WX    TMP DP  RH WIND       PRES   REMARKS
MARTINSBURG    LGT RAIN  59  54  83 W9        29.96F
PETERSBURG*    MOCLDY    57  56  97 CALM      30.02R

$$

VAZ036>039-050-240300-
CENTRAL FOOTHILLS

CITY           SKY/WX    TMP DP  RH WIND       PRES   REMARKS
CHARLOTTESVILL CLOUDY    60  56  86 CALM      30.00R
CULPEPER*      CLOUDY    58  58 100 SW3       29.99S
ORANGE*        CLOUDY    57  57 100 CALM      30.02R
GORDONSVILLE*  FAIR      56  56 100 CALM      30.01R
WARRENTON*     CLOUDY    59  55  85 CALM      29.98R

$$

VAZ055>057-240300-
NORTH AND CENTRAL PIEDMONT

CITY           SKY/WX    TMP DP  RH WIND       PRES   REMARKS
FREDERICKSBRG* FAIR      59  59 100 W7        29.96S
STAFFORD*      CLOUDY    57  56  94 CALM      30.00S

$$

NCZ024-NYZ072-PAZ021-071-VAZ022-071-240300-
OTHER REGIONAL OBSERVATIONS

CITY           SKY/WX    TMP DP  RH WIND       PRES   REMARKS
NEW YORK CITY  CLOUDY    64  44  48 SW5       29.93R
PHILADELPHIA   CLOUDY    61  55  81 S3        29.93R
PITTSBURGH     PTCLDY    63  51  65 W7        30.01R
ROANOKE        FAIR      58  55  90 CALM      30.05R
RICHMOND       LGT RAIN  61  56  83 N6        29.97R
RALEIGH        PTCLDY    55  53  93 CALM      30.03R

$$

ANZ530>537-240300-
MARINE OBSERVATIONS

STATION/POSITION TIME  TEMP    WIND        PRES
                       AIR SEA DIR/SP/G
                 (UTC) (F)     (DEG/KT/KT) (MB)
THOMAS PT LIGHT  0200   61 61  260/ 13/ 14 1014.2F
BALT KEY BRIDGE  0100   61                   N/A
COVE POINT       0100   59                   N/A
LEWISETTA        0100   62 63                N/A
SOLOMONS ISLAND  0100   60 62                N/A
PINEY POINT      0100           10/  9/ 10   N/A

$$




USA.gov is the U.S. government's official web portal to all federal, state and local government web resources and services.